This demonstration page uses our WeatherBlox Daily Observations layout. Learn more.

Left ArrowRight Arrow

Hourly Observations for July 26, 2021

Temp ( °F °C ) Dew Point ( °F °C ) Humidity (%) Winds ( mph kmh ) Pressure ( in mb ) Visibility ( mi km ) Precip ( " mm )
12:53 am 00:53 Mostly Clear 72 22.2 71 21.7 97 97 N N/A 29.95 1014 10 16 N/A
1:53 am 01:53 Clear 72 22.2 71 21.7 97 97 N N/A 29.95 1014 9 14 N/A
2:53 am 02:53 Mostly Cloudy 74 23.3 72 22.2 94 94 N N/A 29.95 1014 10 16 N/A
3:53 am 03:53 Mostly Cloudy 72 22.2 72 22.2 100 100 N N/A 29.95 1014 9 14 N/A
4:53 am 04:53 Clear 73 22.8 72 22.2 96 96 N N/A 29.95 1014 7 11 N/A
5:53 am 05:53 Clear 73 22.8 72 22.2 96 96 N N/A 29.96 1015 10 16 N/A
6:53 am 06:53 Sunny 71 21.7 71 21.7 100 100 N N/A 29.97 1015 7 11 N/A
7:53 am 07:53 Sunny 74 23.3 71 21.7 91 91 N N/A 29.98 1015 10 16 N/A
8:53 am 08:53 Sunny 78 25.6 71 21.7 79 79 N N/A 29.99 1016 10 16 N/A
9:53 am 09:53 Sunny 82 27.8 72 22.2 72 72 N 5 7 30.00 1016 10 16 N/A
10:53 am 10:53 Sunny 85 29.4 71 21.7 63 63 VRB 5 7 30.00 1016 10 16 N/A
11:53 am 11:53 Partly Cloudy 86 30 71 21.7 61 61 NW 8 13 30.00 1016 10 16 N/A
12:53 pm 12:53 Sunny 87 30.6 68 20 53 53 VRB 6 9 30.00 1016 10 16 N/A
1:53 pm 13:53 Sunny 89 31.7 68 20 50 50 ENE 7 11 30.00 1016 10 16 N/A
2:53 pm 14:53 Sunny 89 31.7 67 19.4 48 48 NNW 8 13 29.99 1016 10 16 N/A
3:53 pm 15:53 Mostly Sunny 90 32.2 66 18.9 45 45 N 8 13 29.99 1016 10 16 N/A
4:53 pm 16:53 Sunny 89 31.7 65 18.3 45 45 NNW 9 15 29.99 1016 10 16 N/A
5:53 pm 17:53 Sunny 88 31.1 64 17.8 45 45 NNW 8 13 29.98 1015 10 16 N/A
6:53 pm 18:53 Sunny 86 30 63 17.2 46 46 N 8 13 29.97 1015 10 16 N/A
7:53 pm 19:53 Sunny 84 28.9 64 17.8 51 51 NNE 7 11 29.98 1015 10 16 N/A
8:53 pm 20:53 Sunny 80 26.7 63 17.2 56 56 NE 3 6 29.99 1016 10 16 N/A
9:53 pm 21:53 Clear 71 21.7 67 19.4 87 87 N N/A 30.01 1016 10 16 N/A
10:53 pm 22:53 Clear 69 20.6 67 19.4 93 93 N N/A 30.03 1017 10 16 N/A
11:53 pm 23:53 Clear 68 20 67 19.4 96 96 N N/A 30.03 1017 10 16 N/A

Powered by AerisWeather